Dewpoint
57 52 49 50 55 57 52 52 42 46 44 40 38 39 38 46 47 45 44 46 43 47 49 48 47 48 45 43 37 34 35 37 37 38 35 39 40 38 39 37 40 42 41 42 47 53 55 58 60 60 60 61 61 62 62 62 63 62 63 63 62 62 62 61 60 60 60 61 61 61 61 61 61 61 60 61 60 61 56 56 58 57 56 58 61 60 60 60 60 62 62 61 61 61 61 60 59
53 50 47 47 53 53 50 49 43 40 39 34 36 39 38 42 43 43 42 45 45 45 46 42 41 42 40 38 37 37 30 34 36 36 39 45 42 37 37 36 37 36 37 38 43 51 54 55 58 59 59 59 60 61 61 62 62 62 62 63 63 63 62 61 60 61 60 59 60 60 60 60 61 61 61 60 61 61 60 57 57 57 57 58 57 60 60 60 60 60 62 62 62 61 60 60 59
53 51 48 51 51 50 51 49 40 37 34 30 30 33 38 37 41 43 45 44 46 46 45 41 39 39 44 40 32 34 29 30 29 35 35 37 33 34 37 37 31 30 32 34 39 47 53 54 57 57 57 58 59 60 59 59 60 60 61 62 62 62 62 63 62 62 62 62 61 61 60 61 60 60 61 61 61 61 60 58 57 56 58 58 59 59 59 59 59 59 60 62 62 62 60 59 60
55 51 50 50 47 50 45 45 41 38 32 31 29 30 34 34 32 40 40 44 44 46 47 45 37 37 36 27 35 30 27 30 28 29 31 26 24 37 34 33 31 25 26 30 33 40 48 53 55 56 57 57 57 58 59 59 59 59 60 61 61 61 61 61 61 62 62 61 61 62 62 62 61 60 60 60 61 60 60 59 58 57 57 57 59 58 58 58 58 59 59 61 62 63 61 59 60
51 52 51 47 46 44 44 42 39 35 31 31 28 27 27 31 31 31 31 39 46 45 46 45 40 31 25 25 26 25 22 32 28 26 31 25 22 27 26 28 20 20 22 22 26 33 40 51 53 55 55 56 56 56 57 58 58 58 59 59 59 59 60 60 61 61 60 61 62 62 62 62 62 62 61 61 60 59 59 59 59 58 59 57 57 57 57 58 58 58 59 60 62 62 62 60 60
49 51 53 47 44 48 43 38 35 27 25 28 22 23 23 26 29 32 31 39 44 43 45 40 41 34 24 20 26 23 25 31 30 29 29 19 21 23 22 27 17 17 18 19 21 26 35 48 51 53 54 55 55 55 56 56 57 57 57 58 58 58 59 58 59 59 60 60 60 60 61 61 60 61 61 62 61 61 61 59 58 57 57 58 58 58 57 57 58 58 59 60 62 62 61 61 60
47 45 45 46 45 44 37 34 30 19 19 20 20 21 23 28 25 28 26 28 42 41 40 41 26 27 23 20 21 21 19 22 30 28 24 19 19 22 24 18 16 13 14 16 17 21 30 45 47 48 51 53 54 54 54 55 55 55 56 57 57 57 57 57 57 58 58 58 59 59 59 59 59 60 60 60 60 61 61 61 60 59 58 59 58 58 56 57 57 57 59 59 60 61 61 61 60
50 40 44 38 37 41 37 31 20 20 20 20 21 20 25 32 28 25 25 21 28 31 26 31 37 24 21 27 20 18 18 17 22 24 20 16 14 12 13 11 11 10 11 11 14 19 33 41 44 46 47 48 50 51 51 52 53 53 54 54 55 55 56 56 56 56 56 56 57 57 57 58 58 58 58 58 58 59 59 61 61 61 60 61 60 56 57 56 57 57 58 60 61 62 61 62 61
43 36 43 37 33 38 33 19 19 22 20 20 19 22 32 31 29 28 24 26 31 25 21 26 37 31 25 21 18 25 17 16 11 20 12 11 12 14 11 10 8 8 9 9 10 15 18 35 41 44 45 46 47 48 48 49 49 50 50 51 52 52 53 55 55 55 55 55 54 55 56 56 57 57 57 57 57 57 56 58 60 60 61 61 61 59 57 58 56 58 58 59 59 60 61 61 61
39 36 31 33 36 28 23 20 17 19 18 20 18 18 20 29 28 27 27 26 27 25 21 22 27 25 25 23 25 19 22 19 14 11 11 11 11 10 10 11 11 10 9 10 10 11 19 31 37 40 42 44 44 45 47 47 47 47 48 48 48 49 50 52 53 53 53 52 52 52 53 53 55 56 55 56 56 56 56 56 57 59 59 60 61 60 58 57 57 57 58 58 57 58 61 62 61
31 40 40 33 27 21 20 18 18 19 16 14 16 20 23 23 26 22 26 24 24 23 18 20 23 21 19 18 19 16 18 16 12 12 11 12 11 10 9 9 10 12 11 11 13 11 12 19 31 36 38 40 41 42 45 45 45 46 47 47 47 47 47 48 50 51 51 49 50 50 50 51 51 52 52 53 53 55 55 55 55 56 57 58 59 60 60 58 57 57 56 57 57 57 58 60 61
31 32 31 26 21 21 20 16 18 15 13 9 8 19 21 22 21 21 22 22 20 21 16 15 23 20 18 21 18 12 12 11 12 12 12 11 11 9 7 6 6 7 12 11 11 11 12 13 16 30 33 36 37 39 41 42 43 43 44 45 46 46 46 47 46 46 46 47 48 48 49 48 49 49 49 50 51 50 53 54 55 54 54 56 57 58 59 60 60 57 57 57 56 57 57 59 60
31 33 27 26 20 21 18 14 16 21 11 10 7 13 22 20 18 20 17 16 18 14 16 12 13 19 16 16 14 12 10 11 10 11 11 11 11 8 7 8 8 8 8 15 11 9 10 12 14 18 27 33 34 35 37 39 39 41 42 42 43 43 43 45 45 44 43 44 44 45 45 45 45 46 47 47 49 49 48 50 53 54 53 51 53 55 56 58 59 60 58 56 56 56 57 58 60
28 30 29 25 25 16 17 16 16 15 11 10 8 16 20 20 19 21 16 13 12 14 16 12 13 16 14 15 14 15 12 16 11 10 10 11 12 11 10 8 11 9 9 8 9 9 10 12 13 15 17 18 21 28 34 36 37 38 39 40 40 40 41 42 42 43 42 42 41 40 41 39 40 43 44 46 46 47 46 47 49 52 53 52 49 50 52 54 57 58 59 59 58 57 57 57 59
23 31 28 28 20 22 19 15 15 15 12 8 9 18 17 20 20 18 15 12 11 12 16 12 12 12 10 11 11 12 13 14 15 16 13 13 12 12 11 9 9 9 9 7 8 10 9 10 10 12 16 16 17 22 23 27 35 35 36 37 37 38 39 39 40 39 39 39 39 37 37 36 37 38 40 42 44 44 44 43 46 47 49 49 51 50 49 50 52 55 57 57 58 58 59 57 58
30 33 28 23 18 14 14 13 15 11 11 10 12 10 16 17 21 18 16 14 14 12 12 10 11 10 10 10 11 14 13 14 12 13 11 12 12 14 12 10 9 8 10 11 8 9 9 9 10 12 13 14 15 19 22 23 31 32 33 35 35 34 36 36 36 36 36 36 36 35 34 30 32 30 37 32 40 40 41 41 43 46 47 46 48 48 48 47 47 49 51 53 55 56 57 58 58
32 34 19 18 13 12 12 10 11 6 10 9 7 8 16 17 18 16 15 12 10 12 11 11 10 12 11 11 10 4 4 13 14 3 4 5 7 8 10 11 13 9 9 9 10 9 9 8 9 11 11 13 14 18 21 23 27 30 29 32 33 33 33 34 34 34 34 33 32 33 30 24 24 26 26 27 34 31 38 40 41 43 44 44 43 45 45 49 46 45 46 46 48 51 53 54 58
32 25 19 13 13 9 9 7 7 7 7 8 5 14 16 18 16 18 14 12 10 11 10 9 8 6 5 3 4 3 3 3 3 2 1 2 5 5 7 10 10 10 10 12 11 10 11 9 8 10 10 10 12 14 20 25 24 25 18 20 28 26 29 31 27 28 33 26 33 26 24 24 22 23 26 32 29 29 31 37 38 39 41 42 42 42 43 44 45 45 43 43 41 44 48 49 52
22 22 17 11 14 7 5 4 10 5 4 7 9 16 15 14 16 15 11 13 13 10 10 5 2 2 4 4 3 3 3 3 3 4 3 2 2 3 4 9 11 12 11 12 12 11 12 11 10 10 12 9 12 12 16 24 18 17 18 19 27 28 27 25 24 25 25 27 27 25 26 23 24 23 26 29 30 31 27 33 35 36 37 39 39 39 40 42 42 42 42 41 39 39 45 48 50
21 16 10 11 11 6 7 9 13 12 6 1 5 14 12 13 13 14 11 10 11 12 9 5 2 2 3 3 3 3 3 4 4 5 6 7 6 4 5 6 8 11 14 12 16 12 12 11 10 10 14 10 13 10 17 17 19 16 16 17 17 22 20 19 19 22 24 25 28 26 24 26 25 21 29 31 30 24 23 29 32 33 33 33 36 33 36 38 41 40 39 39 36 33 38 49 49
19 16 14 11 8 6 8 8 9 8 4 2 2 13 12 12 12 14 12 9 7 6 14 7 3 2 2 2 2 3 4 5 6 6 7 8 8 7 6 8 9 11 17 16 18 13 15 12 11 11 11 12 13 10 9 16 18 16 15 16 15 19 21 14 14 19 22 24 29 26 26 27 25 22 22 23 24 22 21 20 23 24 24 26 32 27 27 31 40 39 35 35 32 28 26 29 46
20 12 6 5 5 3 9 6 7 7 4 3 6 12 12 13 10 11 10 8 7 8 7 7 3 2 1 0 1 2 3 5 7 9 9 11 10 9 9 11 9 14 17 13 13 14 15 14 12 13 13 14 12 12 8 19 13 16 14 16 15 13 23 12 10 15 18 21 25 27 25 23 23 22 22 23 24 22 21 21 21 23 24 25 28 26 27 28 30 34 41 40 38 34 27 25 26
10 10 3 4 4 2 5 3 6 3 3 6 16 13 12 12 11 9 8 8 7 9 9 8 6 3 2 1 1 1 2 4 7 12 13 15 15 17 15 10 10 10 15 14 14 16 18 12 12 12 14 16 13 13 10 12 10 14 15 22 19 12 20 12 11 13 16 19 21 27 25 22 23 22 22 23 23 22 22 21 21 21 21 23 25 25 27 28 28 28 28 30 41 33 33 31 28
16 8 1 1 1 2 4 3 5 4 5 8 14 16 12 12 11 10 5 7 11 13 9 13 13 12 8 3 3 4 4 5 7 10 11 17 18 15 13 15 10 12 14 14 12 14 17 13 14 9 12 18 14 13 11 11 11 12 15 22 15 20 21 15 12 15 17 12 19 24 26 22 21 20 21 22 23 22 22 22 22 20 21 21 24 24 25 27 28 27 26 26 26 33 31 28 31
20 13 7 -0 1 3 3 3 3 5 6 11 11 10 12 10 8 10 6 6 7 8 9 9 6 4 3 5 7 9 8 9 10 14 14 12 17 21 18 15 13 15 12 12 13 14 14 18 14 12 11 12 14 14 11 12 11 12 13 14 12 22 16 14 14 14 9 11 15 21 23 20 19 18 21 22 22 22 21 21 21 20 21 21 23 22 24 27 26 25 25 26 26 27 33 35 36
23 15 4 2 2 4 4 5 4 4 5 10 9 8 8 7 6 4 5 4 2 0 -1 -1 -1 -1 -0 1 4 5 8 11 15 16 16 16 21 12 14 13 17 13 12 11 13 13 13 14 14 11 9 10 17 14 12 12 12 12 12 14 12 19 14 16 18 10 8 10 14 20 20 20 19 20 23 22 22 22 21 22 21 20 19 21 22 21 25 25 23 22 23 25 27 29 28 30 34
23 19 10 0 2 4 7 4 5 4 4 10 8 6 5 5 10 2 6 2 3 0 -0 -0 -1 -1 0 2 6 8 8 8 10 10 14 17 16 15 14 14 14 12 14 12 11 13 22 14 12 13 11 20 16 15 14 14 13 11 16 14 13 11 14 21 14 10 9 11 16 18 18 20 23 22 22 22 22 21 20 19 19 19 18 18 18 19 21 22 22 22 23 25 27 29 29 29 34
15 13 21 8 5 5 6 6 7 6 4 11 10 8 7 11 10 3 2 2 1 -1 -1 -1 -1 -1 0 2 4 7 7 9 11 10 9 9 11 12 13 13 12 12 13 12 13 15 14 12 12 13 13 11 19 14 18 15 14 12 19 13 12 12 19 15 14 13 19 12 16 14 17 19 26 21 20 20 21 18 17 17 16 18 18 18 17 16 17 18 22 23 24 25 26 27 28 30 29
18 21 20 13 12 5 6 6 7 6 6 9 12 12 14 14 8 3 1 1 1 -0 -1 -1 -1 -0 1 3 5 6 8 9 12 10 9 11 12 13 11 12 11 10 12 13 13 15 12 11 12 12 11 10 9 8 10 11 12 14 12 11 14 21 13 13 12 12 12 15 17 15 16 22 22 18 16 16 24 15 15 15 15 18 17 18 17 17 17 16 17 21 22 23 22 23 25 28 32
26 22 21 19 17 16 6 8 7 5 7 9 11 5 13 9 7 3 2 0 0 -1 -1 -0 -0 -1 1 2 3 5 9 14 11 11 10 10 11 11 11 10 15 12 12 13 13 13 13 16 13 14 12 9 14 12 14 12 12 11 19 14 19 16 11 10 16 15 16 18 17 17 18 25 17 13 15 12 13 12 13 14 16 16 17 18 17 17 16 16 16 18 21 22 24 24 23 24 29
15 20 20 12 13 8 11 7 7 5 10 10 16 4 12 9 7 3 2 0 -0 -1 -1 -1 -0 -1 0 4 3 4 8 8 8 8 9 10 9 9 10 10 10 10 12 14 12 12 14 13 16 12 15 11 11 7 7 7 13 14 13 11 10 14 12 12 10 11 12 13 15 15 21 24 18 16 15 14 12 13 13 14 16 16 17 18 16 16 17 17 17 18 21 22 22 22 23 24 25
19 16 12 16 7 11 12 14 7 4 10 13 18 8 12 10 8 3 1 1 -0 -1 -1 -1 -1 -1 0 1 3 3 5 7 9 8 8 10 10 9 10 10 10 10 10 11 13 18 13 11 16 15 12 9 7 11 11 9 7 7 10 19 13 15 13 11 9 9 11 15 18 14 19 21 21 18 16 15 14 15 14 14 12 13 12 13 14 15 17 16 17 20 21 22 20 20 21 22 23
19 12 8 8 9 10 12 14 11 13 9 14 9 9 16 10 9 5 2 1 -1 -1 -1 -1 -1 -1 -0 0 1 1 3 4 10 9 9 9 11 12 11 11 11 10 12 14 14 14 8 2 10 8 6 3 3 4 5 6 6 6 5 7 10 12 10 9 9 10 10 11 12 11 16 19 19 18 18 18 18 17 15 12 11 11 12 11 11 14 16 19 17 20 19 21 20 19 20 20 21
14 17 8 12 4 6 8 15 13 17 11 8 11 9 11 11 9 4 4 2 -0 -1 -1 -1 -0 -0 0 0 -0 1 2 4 6 8 11 11 13 14 12 20 18 14 13 8 9 5 1 6 8 12 9 6 5 6 7 7 7 7 8 8 17 14 10 9 9 10 11 12 12 14 16 20 23 18 16 18 17 20 17 13 11 12 12 10 10 9 9 9 11 13 14 16 19 20 19 19 20
9 11 10 11 9 10 8 9 14 12 17 10 9 12 11 10 9 7 5 1 -0 -1 -0 -1 -0 -0 -0 4 1 1 2 3 6 10 13 16 9 7 -0 9 10 14 7 3 4 4 4 4 10 6 8 3 5 5 6 9 10 10 9 8 8 8 9 9 10 10 12 11 13 16 18 23 22 17 18 21 15 16 14 14 15 15 12 10 9 8 7 9 9 8 8 10 15 18 20 20 21
15 15 13 11 7 7 7 12 14 17 9 11 10 7 9 10 9 9 5 2 0 -0 -0 -0 -1 -0 0 1 3 3 4 5 10 16 15 6 5 -1 -7 3 4 8 5 0 10 7 5 3 6 5 4 3 5 6 9 10 10 12 11 9 9 10 8 13 12 13 11 11 20 18 19 17 18 21 17 17 16 12 14 15 15 15 12 11 9 8 8 8 8 8 8 9 9 13 18 19 20
16 16 12 9 10 9 13 10 11 20 12 11 9 8 9 10 10 8 5 3 1 -0 -1 -0 1 -0 0 1 3 6 6 5 16 16 10 7 5 -3 2 1 5 2 3 2 5 5 4 4 6 3 3 4 7 8 12 9 8 9 10 8 8 8 10 12 9 8 11 11 16 15 15 15 16 17 19 16 12 16 19 15 12 12 12 14 12 11 11 9 9 9 9 8 8 7 12 16 17
17 14 9 6 12 7 9 9 16 18 12 11 10 9 9 10 10 9 6 4 1 -0 -1 -1 1 1 2 6 6 7 6 13 11 7 3 -1 -0 7 1 1 13 -2 1 3 4 3 3 5 4 3 3 6 7 7 11 7 6 8 7 7 5 5 6 8 9 9 12 13 14 14 15 13 13 12 14 13 16 13 11 12 10 9 9 10 15 16 11 15 8 8 8 6 6 6 6 13 18
15 8 7 7 8 11 14 17 16 16 16 11 9 3 8 8 7 9 5 5 3 0 -0 -0 0 2 5 5 5 8 8 6 4 1 4 -4 2 -0 -1 1 -3 -1 0 3 1 1 1 3 3 3 8 8 8 10 11 5 4 5 4 4 2 2 2 5 6 10 10 10 10 11 12 12 11 11 12 14 12 11 9 9 7 8 8 12 10 7 7 7 7 7 6 6 5 6 7 11 16
11 10 8 5 10 11 8 11 15 13 13 12 11 4 8 6 5 6 5 2 3 10 13 9 9 4 5 5 5 8 5 5 1 -0 -8 -10 -9 -6 0 -1 -4 2 2 -1 -1 0 2 7 4 6 7 7 7 10 7 3 5 4 6 4 3 2 1 6 1 3 3 2 7 9 10 11 11 10 10 9 9 8 8 7 6 6 5 10 8 6 6 6 7 7 6 7 7 5 5 5 10
16 13 9 6 9 9 8 9 13 17 16 17 8 4 6 5 2 2 3 10 3 9 10 8 9 12 8 10 10 8 3 2 -2 -5 -9 -8 -9 -2 -4 2 1 2 0 -1 2 3 3 3 4 3 3 4 3 4 2 4 5 3 3 2 2 2 1 1 0 -0 -0 3 5 6 7 8 8 8 8 6 8 7 7 7 6 5 6 6 8 7 6 6 5 6 7 8 6 6 6 6 7
11 16 11 10 12 12 12 14 14 10 8 16 11 3 -1 4 3 2 2 4 3 5 5 5 7 5 7 8 6 3 9 3 -3 -5 -5 -6 -3 -3 -4 1 2 -1 -2 2 4 3 2 1 1 1 2 3 2 3 4 4 1 0 0 1 -1 -1 1 0 -1 -1 0 0 1 2 2 2 2 2 2 3 4 8 6 7 8 6 6 6 7 6 5 7 9 10 10 10 11 11 10 10 8
7 8 13 13 11 13 13 13 12 7 2 9 12 -3 0 5 3 2 3 4 3 3 5 5 5 6 7 6 4 1 -4 -7 -4 -3 -4 -5 -2 -4 -2 3 2 -0 0 5 3 2 0 0 -0 1 0 2 0 2 3 4 -2 -2 -3 -2 -1 -1 -0 0 -1 0 1 1 3 -0 -0 -0 2 1 1 3 4 6 8 8 8 7 6 5 9 6 7 9 12 14 15 13 12 15 12 10 11
7 13 12 14 13 11 12 12 10 10 15 14 13 2 -2 -0 -0 5 5 4 3 3 4 4 5 6 6 6 6 2 -2 -5 -4 -2 -4 -3 -3 -2 0 5 3 0 5 6 3 2 -1 -1 0 2 1 1 -1 -1 -1 2 0 -0 -2 -3 -0 1 -0 0 1 2 3 4 0 -1 -1 -0 -0 0 0 1 3 5 8 8 6 6 6 4 9 7 6 8 12 14 14 12 12 12 11 10 10
9 12 15 13 13 13 14 12 10 10 6 6 2 9 -2 -0 0 4 4 2 2 4 5 7 7 8 8 10 8 0 -0 -2 -4 -4 -4 -4 -2 -2 4 4 2 2 7 5 1 1 1 -0 3 2 -0 -1 -2 -3 -1 -1 2 -0 -2 -2 -0 2 2 4 5 5 1 1 -3 -3 -3 -2 -2 -1 0 2 4 5 8 6 5 5 4 4 8 8 6 8 7 7 9 9 10 10 11 12 12
16 17 18 17 18 16 15 10 9 6 3 0 -1 2 -1 1 -2 2 4 2 2 5 6 7 9 10 10 11 6 1 -1 -2 1 -5 -5 -4 -1 -2 3 3 3 3 5 9 5 2 1 1 2 1 0 -1 -2 -3 -4 0 -0 0 -3 -1 1 1 2 0 0 -1 -1 -2 -3 -3 -3 -3 -2 -1 -0 1 3 3 4 4 6 4 3 3 10 7 6 5 7 9 9 8 9 10 12 12 12
18 18 14 10 10 9 9 11 5 3 -2 4 2 2 1 0 -0 1 2 5 9 7 9 10 12 12 11 10 2 4 1 -1 -1 -3 -3 -2 -0 1 4 1 3 3 2 1 3 2 2 2 2 -1 -1 -2 -3 -3 -2 -0 -1 -3 -2 1 1 -1 -3 -3 -3 -4 -4 -4 -5 -4 -3 -2 -0 0 2 3 3 4 4 7 4 3 4 5 6 3 4 7 9 9 10 10 9 10 10 11 11
15 11 6 7 8 3 3 6 8 -2 -2 3 0 3 3 -3 2 1 7 8 8 10 7 7 8 9 10 7 5 3 -0 -2 -1 -2 -1 1 2 0 2 1 2 3 1 0 1 2 4 1 -0 -3 -3 -3 -4 -2 -3 -3 -2 -1 -1 -2 -4 -4 -5 -6 -5 -5 -5 -5 -4 -3 -1 0 -0 1 0 1 1 2 3 1 4 2 3 2 2 3 4 4 4 4 4 5 6 7 6 9 9
11 8 6 4 -1 1 -2 3 0 -3 -2 5 3 3 1 1 2 4 8 9 9 9 9 8 8 9 7 3 1 1 1 -4 -1 -3 1 5 3 0 3 2 4 3 2 1 0 2 1 -1 -4 -5 -5 -5 -5 -5 -5 -5 -3 -2 -3 -4 -6 -4 -4 -5 -5 -5 -5 -4 -1 -1 -1 -2 -1 -1 -1 -2 -1 -0 2 1 1 1 1 2 5 3 3 4 3 2 2 1 2 2 4 3 5
9 3 5 4 2 -1 -2 -2 -2 2 5 4 2 4 2 3 3 4 5 8 10 10 11 10 10 8 4 2 1 -1 -0 -4 -5 -0 1 3 4 0 5 3 3 2 1 2 2 0 -0 -4 -5 -5 -6 -5 -6 -6 -6 -4 -4 -5 -6 -5 -5 -4 -4 -4 -4 -3 -2 -1 1 -2 -3 -3 -3 -3 -3 -2 -1 0 2 2 2 0 0 1 3 3 3 3 4 3 3 2 2 2 3 2 4
9 12 6 0 0 -3 -3 -5 -3 -1 3 3 3 -2 -2 0 9 7 4 8 9 11 12 10 10 7 3 1 -2 -4 -3 -5 -5 -2 0 2 2 -1 3 3 3 3 1 2 1 -1 -3 -5 -5 -7 -7 -7 -7 -7 -5 -6 -7 -7 -6 -4 -3 -4 -4 -3 -1 1 -2 -3 -4 -4 -4 -2 -3 -3 -1 -2 2 0 0 0 1 2 3 2 3 4 5 3 3 3 2 1 2 2 3 6 6
12 10 11 7 -1 6 0 1 -3 -3 2 2 0 1 5 2 7 11 7 8 8 11 10 11 7 6 3 -2 -2 -5 -4 -4 -2 -2 2 2 0 -1 5 3 3 2 1 2 -2 -4 -6 -6 -6 -7 -8 -8 -8 -7 -7 -7 -7 -7 -5 -5 -6 -5 -3 -4 -3 -3 -4 -4 -4 -4 -4 -3 -2 -3 -2 -1 -2 -1 -1 -1 -0 -0 0 1 1 2 2 2 2 2 1 1 1 4 5 6 6
6 5 1 2 9 2 -1 6 6 2 -0 1 2 3 4 5 5 6 6 5 6 7 7 6 0 -0 -1 -6 -3 -7 -5 -4 -2 1 -0 0 -2 -2 3 2 2 0 -2 -2 -4 -5 -6 -8 -9 -9 -9 -9 -8 -8 -7 -8 -7 -7 -6 -7 -7 -7 -7 -7 -7 -6 -6 -5 -4 -4 -4 -3 -3 -3 -3 -2 -3 -2 -1 -1 -1 -1 -0 2 2 2 3 3 2 1 -0 -0 0 1 3 2 3
7 3 5 12 11 9 5 -2 -3 -5 -5 1 1 3 5 4 4 5 2 2 4 5 3 -4 -6 -4 -9 -9 -11 -12 -9 -8 -5 -3 0 -1 -1 1 2 1 -0 -1 1 -4 -6 -3 -7 -9 -9 -10 -9 -10 -9 -9 -9 -8 -8 -9 -9 -9 -8 -8 -8 -8 -7 -8 -6 -6 -5 -5 -5 -5 -4 -4 -3 -2 -1 -1 -2 2 -1 -1 -1 -1 -0 -0 1 1 3 3 2 1 0 1 2 4 5
6 5 12 10 1 2 5 -1 -1 -0 -2 1 3 3 5 5 8 4 2 4 4 1 -2 -7 -9 -9 -11 -13 -15 -11 -10 -9 -6 -5 -0 1 -2 -2 1 0 -1 -1 -1 -4 -6 -8 -10 -7 -10 -9 -10 -10 -10 -9 -9 -10 -9 -10 -10 -10 -9 -8 -8 -8 -8 -7 -6 -7 -7 -6 -5 -5 -4 -2 -0 -2 -2 -1 -1 -1 -0 -1 2 -0 -1 -1 -0 -1 -1 -1 -1 -1 -1 1 1 1 2
18 16 8 12 6 1 -1 -0 -0 2 -1 -0 5 4 5 6 10 7 5 6 4 -1 -4 -7 -9 -9 -11 -14 -19 -18 -12 -13 -14 -8 -6 -3 -2 -4 -1 -1 -2 -2 -3 -5 -8 -11 -11 -11 -12 -11 -10 -11 -11 -11 -10 -11 -11 -11 -11 -10 -9 -9 -8 -8 -8 -8 -7 -7 -6 -5 -5 -4 -3 -0 -1 -1 -1 -1 -0 -0 0 0 1 5 2 1 1 -0 -1 -1 -2 -2 -2 -3 -3 -2 -2
7 7 5 6 4 7 8 1 0 -0 -5 -6 -4 2 7 8 5 4 9 7 4 -2 -5 -8 -8 -8 -9 -15 -19 -20 -16 -17 -14 -8 -8 -6 -6 -5 -0 -1 -2 -3 -3 -8 -11 -12 -12 -13 -13 -12 -12 -12 -12 -12 -12 -12 -11 -11 -10 -10 -9 -9 -9 -9 -8 -8 -7 -7 -6 -3 -2 -2 -0 0 -0 -0 -0 0 0 1 1 2 2 2 2 2 1 0 0 -0 1 -0 -1 -1 -2 -2 -1
10 11 9 11 1 1 -1 3 2 -1 -2 -3 -3 3 7 8 7 6 6 6 0 -3 -6 -7 -7 -8 -11 -18 -18 -18 -19 -14 -10 -6 -8 -9 -9 -6 -4 -5 -6 -7 -9 -10 -11 -12 -12 -12 -12 -12 -12 -12 -13 -13 -13 -12 -11 -10 -10 -10 -10 -9 -9 -8 -8 -8 -7 -6 -4 -3 -3 -2 -1 -0 1 1 1 2 2 2 2 3 3 3 4 3 3 4 3 2 1 0 -0 0 -1 -0 0